Regional Weather Roundup
Issued by NWS Midland/Odessa, TX

Skip options and go directly to product.
Home | Oldest Version | Previous Version | Current Version | All | Text Only | Save Text | Print | Product List | Glossary Off

Skip product version selection by date and time.   

037
ASUS44 KMAF 310610
RWRMAF
MIDLAND AREA WEATHER ROUNDUP
NATIONAL WEATHER SERVICE MIDLAND TX
100 AM CDT FRI OCT 31 2014

...IN SOUTHWEST TEXAS AND SOUTHEAST NEW MEXICO...

CITY           SKY/WX    TMP DP  RH WIND       PRES   REMARKS
ALPINE         CLEAR     52  38  58 N7        30.35S
ANDREWS        FAIR      57  41  56 NE6       30.30S
ARTESIA        NOT AVBL
BIG SPRING     CLEAR     64  40  42 NE14      30.29R
CARLSBAD       CLEAR     57  47  69 N6        30.30R
DRYDEN           N/A     69  61  75 N7        30.14S
FORT STOCKTON  CLEAR     59  43  55 N5        30.24R
GUAD PASS      CLEAR     56  46  69 NE41      30.33S
HOBBS          CLEAR     57  34  41 NE15      30.33R
MARFA          CLEAR     57  39  51 N15       30.32R
MIDLAND AIRPK  CLEAR     64  47  54 NE13      30.28R
MIDLAND INTL   CLEAR     64  49  57 NE17      30.26R
ODESSA         CLEAR     63  49  60 E17       30.27R
PECOS          CLEAR     56  46  69 N5        30.25R
PRESIDIO       FAIR      73  36  25 N15G21    30.17R
SEMINOLE       CLEAR     56  36  48 NE12      30.32R
SNYDER         CLEAR     60  37  41 NE9       30.29R
WINK           CLEAR     64  51  62 NE12      30.25R
$$
...OTHER STATIONS IN TEXAS...

CITY           SKY/WX    TMP DP  RH WIND       PRES   REMARKS
ABILENE        PTCLDY    65  37  35 E3        30.26R
AMARILLO       CLEAR     48  31  51 NE7       30.38R
AUSTIN         PTCLDY    66  61  84 CALM      30.11S
BROWNSVILLE    CLEAR     71  69  93 CALM      30.07S
CORPUS CHRISTI PTCLDY    72  69  90 SE3       30.07F
DALLAS FTW     CLEAR     60  50  69 N10       30.17S
DEL RIO        CLEAR     69  61  75 E5        30.08S
EL PASO        MOCLDY    65  33  30 NE3       30.25R
HOUSTON INT    MOCLDY    62  56  80 CALM      30.10R
LUBBOCK        CLEAR     46  33  60 NE9       30.33R
SAN ANGELO     MOCLDY    70  59  68 NE17      30.21R
SAN ANTONIO    PTCLDY    71  63  75 SE5       30.10F
WACO           CLEAR     63  57  81 NW8       30.16R
WICHITA FALLS  NOT AVBL
$$
...OTHER LOCATIONS IN NEW MEXICO...

CITY           SKY/WX    TMP DP  RH WIND       PRES   REMARKS
ALAMAGORDO     NOT AVBL
ALBUQUERQUE    CLEAR     59  23  25 E17       30.33R
CANNON AFB     CLEAR     46  28  49 NE8       30.37R
CLOVIS         CLEAR     45  27  49 NE9       30.40R WCI  40
HOLLOMAN AFB   CLEAR     54  31  41 NW9       30.25R
ROSWELL        CLEAR     54  32  43 NW3       30.34R
RUIDOSO        CLEAR     45  27  49 S6        30.47S
SANTA FE       CLEAR     52  20  28 SE15      30.40S
TRUTH OR CONSE PTCLDY    54  27  35 N6        30.28R
TUCUMCARI      CLEAR     47  25  42 NE5       30.37R
$$

USA.gov is the U.S. government's official web portal to all federal, state and local government web resources and services.